Weather History for Cecil Field, FL

Change the Weather History Date:

Saturday, December 7, 2013

  Actual Average (KJAX) Record (KJAX)
Temperature  
Mean Temperature 70 °F 57 °F  
Max Temperature 84 °F 68 °F 83 °F (2013)
Min Temperature 57 °F 46 °F 21 °F (1937)
Degree Days  
Heating Degree Days 0 9  
Month to date heating degree days 59  
Since 1 July heating degree days 232  
Cooling Degree Days 6 1  
Month to date cooling degree days 7  
Year to date cooling degree days 2651  
Growing Degree Days 20 (Base 50)    
Moisture  
Dew Point 65 °F    
Average Humidity 90    
Maximum Humidity 100    
Minimum Humidity 51    
Precipitation  
Precipitation 0.00 in 0.09 in 2.03 in (1875)
Month to date precipitation 0.62  
Year to date precipitation 50.21  
Snow  
Snow 0.00 in 0.00 in 0.00 in (2001)
Month to date snowfall 0.0  
Since 1 July snowfall 0.0  
Snow Depth -    
Sea Level Pressure  
Sea Level Pressure 30.19 in    
Wind  
Wind Speed 2 mph (South)    
Max Wind Speed 10 mph    
Max Gust Speed -    
Visibility 5 miles    
Events Fog    
T = Trace of Precipitation, MM = Missing Value Source: NWS Daily Summary

Daily Weather History Graph

Daily Weather History Graph

Search for Another Location

Airport:

Trip Planner

Search our weather history database for the weather conditions in past years. The results will help you decide how hot, cold, wet, or windy it might be!

Date:

Astronomy

Dec. 07, 2013 Rise Set
Actual Time 7:11 AM EST 5:27 PM EST
Civil Twilight 6:44 AM EST 5:53 PM EST
Nautical Twilight 6:14 AM EST 6:23 PM EST
Astronomical Twilight 5:45 AM EST 6:52 PM EST
Moon 11:09 AM EST (12/7) 10:50 PM EST (12/7)
Length of Visible Light 11h 08m
Length of Day
10h 16m
Waxing Crescent, 29% of the Moon is Illuminated
Dec 7
Waxing Crescent
Dec 9
First Quarter
Dec 17
Full
Dec 25
Last Quarter
Jan 1
New

Hourly Weather History & Observations

Time (EST) Temp. Heat Index Dew Point Humidity Pressure Visibility Wind Dir Wind Speed Gust Speed Precip Events Conditions
12:15 AM 59.0 °F - 59.0 °F 100% 30.17 in 0.2 mi Calm Calm - N/A Fog Fog
12:35 AM 60.8 °F - 60.8 °F 100% 30.17 in 1.2 mi Calm Calm - N/A   Clear
12:55 AM 59.0 °F - 59.0 °F 100% 30.17 in 5.0 mi SE 3.5 mph - N/A   Clear
1:15 AM 60.8 °F - 59.0 °F 94% 30.17 in 5.0 mi Calm Calm - N/A   Clear
1:35 AM 62.6 °F - 62.6 °F 100% 30.17 in 6.0 mi SE 3.5 mph - N/A   Clear
1:55 AM 60.8 °F - 60.8 °F 100% 30.17 in 0.2 mi Calm Calm - N/A Fog Fog
2:15 AM 59.0 °F - 59.0 °F 100% 30.16 in 0.2 mi Calm Calm - N/A Fog Fog
2:35 AM 57.2 °F - 57.2 °F 100% 30.17 in 0.5 mi Calm Calm - N/A Fog Fog
2:55 AM 59.0 °F - 59.0 °F 100% 30.16 in 0.5 mi Calm Calm - N/A Fog Fog
3:15 AM 57.2 °F - 57.2 °F 100% 30.17 in 2.5 mi Calm Calm - N/A   Partly Cloudy
3:35 AM 59.0 °F - 59.0 °F 100% 30.16 in 0.2 mi Calm Calm - N/A Fog Fog
3:55 AM 64.4 °F - 64.4 °F 100% 30.16 in 1.0 mi South 4.6 mph - N/A   Overcast
4:15 AM 64.4 °F - 64.4 °F 100% 30.17 in 0.5 mi South 3.5 mph - N/A Fog Fog
4:35 AM 64.4 °F - 64.4 °F 100% 30.17 in 0.2 mi South 6.9 mph - N/A Fog Fog
4:55 AM 64.4 °F - 64.4 °F 100% 30.17 in 0.2 mi South 5.8 mph - N/A Fog Fog
5:15 AM 66.2 °F - 66.2 °F 100% 30.18 in 0.2 mi South 4.6 mph - N/A Fog Fog
5:35 AM 66.2 °F - 66.2 °F 100% 30.18 in 0.2 mi South 4.6 mph - N/A Fog Fog
5:55 AM 66.2 °F - 66.2 °F 100% 30.19 in 0.5 mi South 3.5 mph - N/A Fog Fog
6:15 AM 66.2 °F - 66.2 °F 100% 30.19 in 0.5 mi Calm Calm - N/A Fog Fog
6:35 AM 66.2 °F - 66.2 °F 100% 30.20 in 0.8 mi Calm Calm - N/A   Overcast
6:50 AM 66.2 °F - 66.2 °F 100% 30.20 in 0.8 mi Calm Calm - N/A   Overcast
7:50 AM 66.2 °F - 66.2 °F 100% 30.22 in 2.0 mi Calm Calm - N/A   Scattered Clouds
8:50 AM 68.0 °F - 68.0 °F 100% 30.23 in 3.0 mi Calm Calm - N/A   Partly Cloudy
9:10 AM 71.6 °F - 68.0 °F 88% 30.24 in 7.0 mi North - - N/A   Mostly Cloudy
9:50 AM 73.4 °F - 69.8 °F 88% 30.24 in 7.0 mi South 5.8 mph - N/A   Mostly Cloudy
10:15 AM 75.2 °F - 68.0 °F 78% 30.24 in 7.0 mi SW 5.8 mph - N/A   Mostly Cloudy
10:50 AM 78.8 °F - 68.0 °F 69% 30.24 in 7.0 mi SW 10.4 mph - N/A   Mostly Cloudy
11:50 AM 80.6 °F 82.7 °F 66.2 °F 61% 30.22 in 7.0 mi WSW 9.2 mph - N/A   Mostly Cloudy
12:50 PM 82.4 °F 84.6 °F 66.2 °F 58% 30.20 in 7.0 mi West 9.2 mph - N/A   Mostly Cloudy
1:50 PM 82.4 °F 83.9 °F 64.4 °F 54% 30.17 in 10.0 mi SW 10.4 mph - N/A   Mostly Cloudy
2:50 PM 84.2 °F 85.6 °F 64.4 °F 51% 30.15 in 10.0 mi WSW 5.8 mph - N/A   Scattered Clouds
4:50 PM 78.8 °F - 66.2 °F 65% 30.16 in 10.0 mi Calm Calm - N/A   Scattered Clouds
5:50 PM 73.4 °F - 68.0 °F 83% 30.17 in 10.0 mi Calm Calm - N/A   Scattered Clouds
6:50 PM 71.6 °F - 66.2 °F 83% 30.19 in 10.0 mi Calm Calm - N/A   Mostly Cloudy
7:50 PM 69.8 °F - 68.0 °F 94% 30.20 in 10.0 mi Calm Calm - N/A   Scattered Clouds
8:15 PM 68.0 °F - 66.2 °F 94% 30.20 in 10.0 mi Calm Calm - N/A   Partly Cloudy
8:35 PM 68.0 °F - 66.2 °F 94% 30.21 in 10.0 mi Calm Calm - N/A   Scattered Clouds
8:55 PM 69.8 °F - 66.2 °F 88% 30.21 in 10.0 mi East 3.5 mph - N/A   Partly Cloudy
9:15 PM 69.8 °F - 66.2 °F 88% 30.21 in 10.0 mi Calm Calm - N/A   Clear
9:35 PM 69.8 °F - 66.2 °F 88% 30.22 in 10.0 mi SSE 3.5 mph - N/A   Scattered Clouds
9:55 PM 69.8 °F - 66.2 °F 88% 30.22 in 10.0 mi SE 3.5 mph - N/A   Scattered Clouds
10:15 PM 68.0 °F - 66.2 °F 94% 30.22 in 10.0 mi SE 4.6 mph - N/A   Partly Cloudy
10:35 PM 68.0 °F - 66.2 °F 94% 30.22 in 10.0 mi Calm Calm - N/A   Clear
10:55 PM 68.0 °F - 64.4 °F 88% 30.22 in 10.0 mi SSE 3.5 mph - N/A   Clear
11:15 PM 68.0 °F - 64.4 °F 88% 30.23 in 10.0 mi Calm Calm - N/A   Clear
11:35 PM 68.0 °F - 64.4 °F 88% 30.22 in 10.0 mi SE 3.5 mph - N/A   Clear
11:55 PM 66.2 °F - 64.4 °F 94% 30.22 in 10.0 mi Calm Calm - N/A   Clear